SBI5325 UNNT-UNBB

Flight info

Callsign SBI5325
Flight time 0h 28m
Altitude 21000
Route ALIRO1K ALIRO ALIRO2K
Aircraft A320/M-SDE3FGHIRWY/LB1

Departure

Time 2026-04-23 14:38
Airport Novosibirsk Tolmachevo Airport (UNNT)

Arrival

Time 2026-04-23 15:07
Airport Barnaul Gherman Titov International Airport (UNBB)
Time Latitude Longitude Altitude Speed Heading
2026-04-23 14:29 55.01073 82.66398 376 ft 0 kts 172°
2026-04-23 14:36 55.01047 82.66423 376 ft 7 kts 117°
2026-04-23 14:36 55.01068 82.66589 376 ft 18 kts 68°
2026-04-23 14:36 55.01177 82.66644 376 ft 18 kts 350°
2026-04-23 14:37 55.01302 82.66610 376 ft 18 kts 352°
2026-04-23 14:37 55.01371 82.66472 376 ft 10 kts 261°
2026-04-23 14:37 55.01370 82.66461 376 ft 5 kts 261°
2026-04-23 14:37 55.01325 82.65932 376 ft 81 kts 261°
2026-04-23 14:38 55.01202 82.64577 376 ft 143 kts 262°
2026-04-23 14:38 55.01014 82.62667 628 ft 170 kts 261°
2026-04-23 14:38 55.00801 82.60682 1343 ft 167 kts 261°
2026-04-23 14:38 55.00601 82.58728 2070 ft 167 kts 262°
2026-04-23 14:39 55.00400 82.56718 2536 ft 176 kts 262°
2026-04-23 14:39 54.99995 82.54621 2877 ft 196 kts 234°
2026-04-23 14:39 54.98820 82.53336 3205 ft 217 kts 194°
2026-04-23 14:39 54.97252 82.53014 3575 ft 236 kts 189°
2026-04-23 14:40 54.95551 82.52649 3953 ft 256 kts 191°
2026-04-23 14:40 54.93735 82.52226 4499 ft 270 kts 192°
2026-04-23 14:40 54.91896 82.51774 5311 ft 272 kts 191°
2026-04-23 14:40 54.90034 82.51314 6183 ft 272 kts 191°
2026-04-23 14:41 54.88178 82.50863 7031 ft 271 kts 191°
2026-04-23 14:41 54.86368 82.50421 7823 ft 272 kts 190°
2026-04-23 14:41 54.84597 82.49992 8553 ft 273 kts 190°
2026-04-23 14:41 54.82676 82.49535 9315 ft 275 kts 191°
2026-04-23 14:42 54.80782 82.49088 10039 ft 278 kts 191°
2026-04-23 14:42 54.78833 82.48623 10458 ft 292 kts 191°
2026-04-23 14:42 54.76747 82.48119 10777 ft 310 kts 191°
2026-04-23 14:42 54.74569 82.47590 11084 ft 327 kts 191°
2026-04-23 14:43 54.72280 82.47037 11382 ft 343 kts 191°
2026-04-23 14:43 54.69861 82.46455 11849 ft 353 kts 191°
2026-04-23 14:43 54.67442 82.45878 12513 ft 357 kts 191°
2026-04-23 14:43 54.64976 82.45290 13174 ft 359 kts 192°
2026-04-23 14:44 54.62493 82.44697 13781 ft 363 kts 192°
2026-04-23 14:44 54.60042 82.44112 14365 ft 367 kts 192°
2026-04-23 14:44 54.57481 82.43501 14952 ft 371 kts 192°
2026-04-23 14:44 54.54917 82.42890 15518 ft 373 kts 192°
2026-04-23 14:45 54.52301 82.42267 16072 ft 377 kts 192°
2026-04-23 14:45 54.49712 82.41650 16611 ft 380 kts 192°
2026-04-23 14:45 54.47080 82.41024 17137 ft 383 kts 192°
2026-04-23 14:45 54.44440 82.40397 17646 ft 386 kts 192°
2026-04-23 14:46 54.41775 82.39766 18141 ft 388 kts 192°
2026-04-23 14:46 54.39109 82.39133 18619 ft 391 kts 192°
2026-04-23 14:46 54.36393 82.38490 19082 ft 394 kts 192°
2026-04-23 14:46 54.33693 82.37852 19516 ft 397 kts 192°
2026-04-23 14:47 54.30949 82.37203 19945 ft 400 kts 192°
2026-04-23 14:47 54.28205 82.36557 20365 ft 403 kts 192°
2026-04-23 14:47 54.25393 82.35896 20654 ft 406 kts 192°
2026-04-23 14:47 54.22589 82.35239 20707 ft 406 kts 192°
2026-04-23 14:48 54.19805 82.34589 20730 ft 406 kts 192°
2026-04-23 14:48 54.17010 82.33934 20741 ft 406 kts 192°
2026-04-23 14:48 54.14180 82.33271 20713 ft 406 kts 192°
2026-04-23 14:48 54.11396 82.32619 20498 ft 405 kts 192°
2026-04-23 14:49 54.08600 82.32046 20105 ft 405 kts 187°
2026-04-23 14:49 54.05786 82.32677 19593 ft 416 kts 167°
2026-04-23 14:49 54.03202 82.34985 19014 ft 425 kts 146°
2026-04-23 14:49 54.01177 82.38753 18481 ft 431 kts 125°
2026-04-23 14:50 53.99851 82.43291 17954 ft 430 kts 117°
2026-04-23 14:50 53.98640 82.47926 17398 ft 426 kts 117°
2026-04-23 14:50 53.97428 82.52536 16804 ft 422 kts 117°
2026-04-23 14:50 53.96219 82.57073 16242 ft 416 kts 117°
2026-04-23 14:51 53.95023 82.61508 15705 ft 412 kts 118°
2026-04-23 14:51 53.93833 82.65886 15178 ft 407 kts 119°
2026-04-23 14:51 53.92654 82.70204 14680 ft 402 kts 119°
2026-04-23 14:51 53.91487 82.74461 14164 ft 397 kts 119°
2026-04-23 14:52 53.90335 82.78664 13643 ft 393 kts 119°
2026-04-23 14:52 53.89185 82.82851 13120 ft 389 kts 119°
2026-04-23 14:52 53.88048 82.86978 12595 ft 384 kts 119°
2026-04-23 14:52 53.86909 82.91097 12072 ft 381 kts 119°
2026-04-23 14:53 53.85808 82.95068 11564 ft 377 kts 120°
2026-04-23 14:53 53.84694 82.99074 11049 ft 374 kts 120°
2026-04-23 14:53 53.83599 83.03012 10702 ft 363 kts 120°
2026-04-23 14:53 53.82558 83.06770 10500 ft 349 kts 120°
2026-04-23 14:54 53.81547 83.10411 10315 ft 335 kts 120°
2026-04-23 14:54 53.80570 83.13914 10147 ft 321 kts 120°
2026-04-23 14:54 53.79645 83.17227 10006 ft 307 kts 121°
2026-04-23 14:54 53.78738 83.20455 9878 ft 297 kts 121°
2026-04-23 14:55 53.77827 83.23496 9763 ft 290 kts 126°
2026-04-23 14:55 53.76722 83.26331 9544 ft 286 kts 134°
2026-04-23 14:55 53.75491 83.28931 9197 ft 283 kts 136°
2026-04-23 14:55 53.74243 83.31469 8869 ft 281 kts 136°
2026-04-23 14:56 53.72995 83.34010 8545 ft 280 kts 136°
2026-04-23 14:56 53.71761 83.36533 8222 ft 279 kts 136°
2026-04-23 14:56 53.70538 83.39043 7896 ft 276 kts 136°
2026-04-23 14:56 53.69339 83.41514 7583 ft 274 kts 136°
2026-04-23 14:57 53.68142 83.43979 7272 ft 272 kts 136°
2026-04-23 14:57 53.66943 83.46439 6960 ft 270 kts 136°
2026-04-23 14:57 53.65760 83.48876 6654 ft 268 kts 136°
2026-04-23 14:57 53.64579 83.51298 6345 ft 267 kts 136°
2026-04-23 14:58 53.63409 83.53696 6037 ft 265 kts 135°
2026-04-23 14:58 53.62246 83.56072 5728 ft 263 kts 135°
2026-04-23 14:58 53.61084 83.58435 5417 ft 262 kts 134°
2026-04-23 14:58 53.59936 83.60770 5108 ft 260 kts 134°
2026-04-23 14:59 53.58791 83.63107 4797 ft 259 kts 133°
2026-04-23 14:59 53.57639 83.65462 4485 ft 258 kts 133°
2026-04-23 14:59 53.56516 83.67750 4181 ft 256 kts 133°
2026-04-23 14:59 53.55603 83.69614 4063 ft 247 kts 133°
2026-04-23 15:00 53.54580 83.71704 4043 ft 232 kts 133°
2026-04-23 15:00 53.53556 83.73795 4023 ft 231 kts 133°
2026-04-23 15:00 53.52458 83.75703 3971 ft 226 kts 149°
2026-04-23 15:00 53.51085 83.76897 3914 ft 217 kts 161°
2026-04-23 15:01 53.49707 83.77830 3790 ft 207 kts 162°
2026-04-23 15:01 53.48409 83.78693 3669 ft 198 kts 162°
2026-04-23 15:01 53.47135 83.79549 3541 ft 195 kts 162°
2026-04-23 15:01 53.45874 83.80402 3247 ft 196 kts 162°
2026-04-23 15:02 53.45048 83.80965 3080 ft 195 kts 161°
2026-04-23 15:02 53.43347 83.81780 2740 ft 188 kts 191°
2026-04-23 15:02 53.42272 83.80703 2684 ft 189 kts 238°
2026-04-23 15:02 53.41895 83.78578 2742 ft 195 kts 257°
2026-04-23 15:03 53.41645 83.76355 2840 ft 187 kts 254°
2026-04-23 15:03 53.41309 83.74380 2846 ft 167 kts 250°
2026-04-23 15:03 53.40963 83.72643 2720 ft 149 kts 247°
2026-04-23 15:03 53.40617 83.71107 2533 ft 136 kts 244°
2026-04-23 15:04 53.40263 83.69662 2372 ft 134 kts 243°
2026-04-23 15:04 53.39904 83.68230 2210 ft 133 kts 244°
2026-04-23 15:04 53.39544 83.66797 2043 ft 132 kts 243°
2026-04-23 15:04 53.39185 83.65376 1875 ft 132 kts 243°
2026-04-23 15:05 53.38817 83.63976 1732 ft 131 kts 244°
2026-04-23 15:05 53.38458 83.62592 1593 ft 130 kts 246°
2026-04-23 15:05 53.38123 83.61192 1458 ft 129 kts 247°
2026-04-23 15:05 53.37785 83.59785 1291 ft 128 kts 246°
2026-04-23 15:06 53.37435 83.58415 1133 ft 128 kts 247°
2026-04-23 15:06 53.37098 83.57057 982 ft 127 kts 247°
2026-04-23 15:06 53.36754 83.55686 844 ft 125 kts 247°
2026-04-23 15:06 53.36500 83.54677 843 ft 54 kts 247°
2026-04-23 15:07 53.36359 83.54118 843 ft 48 kts 246°
2026-04-23 15:07 53.36228 83.53909 843 ft 21 kts 161°
2026-04-23 15:07 53.36180 83.54069 844 ft 18 kts 52°
2026-04-23 15:07 53.36212 83.54246 844 ft 18 kts 72°
2026-04-23 15:08 53.36270 83.54489 844 ft 23 kts 69°
2026-04-23 15:08 53.36296 83.54721 844 ft 18 kts 150°
2026-04-23 15:08 53.36238 83.54633 844 ft 0 kts 247°